Home > Weather > Edinburgh > Past weeks

Flag for United Kingdom Past Weather in Edinburgh, Scotland, United Kingdom — Yesterday and Last 2 Weeks

Now
55 °F

Partly sunny.


Feels Like: 52 °F
Forecast: 43 / 52 °F
Wind: 14 mph from East

Location: Edinburgh Airport

Current Time: May 24, 2016 at 3:02:37 PM

Latest Report: May 24, 2016 at 2:20 PM


Visibility: N/A

Pressure: 30.30 "Hg

Humidity: 72%

Dew Point: 46 °F

Location of EdinburghLocation

Past Weather in Edinburgh — Graph

°F

Edinburgh Temperature Yesterday

Maximum temperature yesterday: 61 °F (at 12:50 PM)
Minimum temperature yesterday: 41 °F (at 1:50 AM)
Average temperature yesterday: 52 °F

High & Low Weather Summary for the Past Weeks

 TemperatureHumidityPressure
High63 °F (May 18, 2:20 PM)100% (May 10, 3:50 AM)30.30 "Hg (May 10, 3:50 AM)
Low28 °F (May 14, 4:20 AM)27% (May 12, 4:20 PM)29.45 "Hg (May 21, 9:20 AM)
Average51 °F76%29.91 "Hg
* Reported May 9 2:20 PM — May 24 2:20 PM, Edinburgh, Weather by CustomWeather, © 2016

Note: Actual official high and low records may vary slightly from our data, if they occured in-between our weather recording intervals... More about our weather records

Advertising

Edinburgh Weather History for the Previous 24 Hours

Scroll right to see more
 ConditionsComfort  
Time TempWeatherWind HumidityBarometerVisibility
2:20 PM
Tue, May 24
55 °FPartly sunny.14 mph72%30.30 "HgN/A
1:20 PM55 °FPartly sunny.13 mph72%30.30 "HgN/A
12:50 PM57 °FPartly sunny.13 mph67%30.30 "HgN/A
12:20 PM57 °FPartly sunny.10 mph67%30.30 "HgN/A
11:50 AM57 °FPartly sunny.10 mph67%30.30 "HgN/A
11:20 AM55 °FPartly sunny.12 mph67%30.30 "HgN/A
10:50 AM55 °FPartly sunny.12 mph72%30.30 "HgN/A
10:20 AM54 °FPartly sunny.13 mph77%30.30 "HgN/A
9:50 AM52 °FOvercast.13 mph82%30.30 "HgN/A
9:20 AM50 °FBroken clouds.15 mph88%30.30 "HgN/A
8:50 AM52 °FBroken clouds.10 mph88%30.30 "HgN/A
8:20 AM54 °FPassing clouds.12 mph82%30.30 "HgN/A
7:50 AM54 °FScattered clouds.8 mph77%30.27 "HgN/A
7:20 AM50 °FPassing clouds.6 mph100%30.27 "HgN/A
6:50 AM45 °FQuite cool.1 mph100%30.27 "Hg5 mi
6:20 AM41 °FQuite cool.1 mph100%30.27 "Hg4 mi
5:50 AM39 °FLight fog.1 mph100%30.27 "HgN/A
5:20 AM39 °FLight fog.1 mph93%30.27 "HgN/A
4:50 AM39 °FFog.1 mph100%30.24 "Hg1 mi
4:20 AM41 °FFog.1 mph100%30.24 "Hg1 mi
3:50 AM41 °FFog.2 mph100%30.24 "Hg0 mi
3:20 AM43 °FQuite cool.2 mph93%30.24 "HgN/A
2:50 AM45 °FQuite cool.3 mph93%30.24 "Hg4 mi
2:20 AM45 °FQuite cool.3 mph100%30.24 "HgN/A
1:50 AM46 °FCool.1 mph93%30.24 "HgN/A
1:20 AM46 °FPassing clouds.6 mph93%30.24 "HgN/A
12:50 AM45 °FPassing clouds.6 mph100%30.24 "HgN/A
12:20 AM46 °FCool.5 mph93%30.24 "HgN/A
11:50 PM
Mon, May 23
48 °FCool.6 mph94%30.24 "HgN/A
11:20 PM48 °FCool.7 mph94%30.24 "HgN/A
10:50 PM48 °FCool.6 mph94%30.24 "HgN/A
10:20 PM50 °FCool.8 mph88%30.21 "HgN/A
9:50 PM50 °FPartly sunny.9 mph88%30.21 "HgN/A
9:20 PM50 °FScattered clouds.9 mph88%30.21 "HgN/A
8:50 PM50 °FCool.12 mph88%30.18 "HgN/A
8:20 PM52 °FCool.12 mph82%30.18 "HgN/A
7:50 PM54 °FCool.13 mph82%30.18 "HgN/A
7:20 PM55 °FCool.9 mph77%30.18 "HgN/A
6:50 PM55 °FCool.12 mph77%30.15 "HgN/A
6:20 PM59 °FCool.12 mph68%30.15 "HgN/A
5:50 PM59 °FPassing clouds.10 mph63%30.15 "HgN/A
5:20 PM59 °FPassing clouds.10 mph63%30.15 "HgN/A
4:50 PM59 °FPassing clouds.12 mph63%30.12 "HgN/A
4:20 PM61 °FPassing clouds.12 mph59%30.12 "HgN/A
3:50 PM61 °FRefreshingly cool.9 mph55%30.12 "HgN/A
3:20 PM61 °FRefreshingly cool.8 mph55%30.12 "HgN/A
Weather by CustomWeather, © 2016

See weather overviewHow to use our weather pages